Montrose, CO

6:01 PM MDT on May 20, 2018 (GMT -0600)
Montrose Regional

Weather History for KMTJ - April, 2013

Change the Weather History Date:

Wednesday, April 10, 2013

  Actual Average Record
Temperature  
Mean Temperature 28 °F 47 °F  
Max Temperature 39 °F 61 °F 79 °F (2012)
Min Temperature 17 °F 34 °F 17 °F (2013)
Degree Days  
Heating Degree Days 37 18  
Month to date heating degree days 169 188  
Since 1 July heating degree days 5555 5644  
Cooling Degree Days 0 0  
Month to date cooling degree days 0 0  
Year to date cooling degree days 0 0  
Moisture  
Dew Point 18 °F    
Average Humidity 73    
Maximum Humidity 91    
Minimum Humidity 54    
Precipitation  
Precipitation T in 0.04 in 0.10 in (2001)
Month to date precipitation 0.32 0.32  
Year to date precipitation 1.55 2.57  
Sea Level Pressure  
Sea Level Pressure 30.11 in    
Wind  
Wind Speed 4 mph (NE)    
Max Wind Speed 10 mph    
Max Gust Speed 14 mph    
Visibility 7 miles    
Events Snow    
T = Trace of Precipitation, MM = Missing Value Source: NWS Daily Summary

Daily Weather History Graph

Daily Weather History Graph

Search for Another Location

Airport or City:

Astronomy

Apr. 10, 2013 Rise Set
Actual Time 6:42 AM MDT 7:43 PM MDT
Civil Twilight 6:15 AM MDT 8:10 PM MDT
Nautical Twilight 5:43 AM MDT 8:43 PM MDT
Astronomical Twilight 5:09 AM MDT 9:16 PM MDT
Moon 6:40 AM MDT (4/10) 8:21 PM MDT (4/10)
Length of Visible Light 13h 55m
Length of Day
13h 01m
New Moon, 0% of the Moon is Illuminated
Apr 10
New Moon
Apr 18
First Quarter
Apr 25
Full
May 2
Last Quarter
May 9
New

Hourly Weather History & Observations

Time (MDT) Temp. Windchill Dew Point Humidity Pressure Visibility Wind Dir Wind Speed Gust Speed Precip Events Conditions
12:12 AM 19.4 °F 11.5 °F 17.6 °F 93% 30.04 in 3.0 mi NNE 5.8 mph - 0.00 in Snow Light Snow
12:24 AM 19.4 °F 9.5 °F 19.4 °F 100% 30.04 in 2.5 mi North 8.1 mph - 0.00 in Snow Light Snow
12:42 AM 19.4 °F 11.5 °F 17.6 °F 93% 30.05 in 3.0 mi North 5.8 mph - 0.00 in Snow Light Snow
12:49 AM 19.4 °F 10.4 °F 17.6 °F 93% 30.05 in 3.0 mi North 6.9 mph - 0.00 in Snow Light Snow
12:53 AM 19.9 °F 12.1 °F 18.0 °F 92% 30.10 in 3.0 mi NNW 5.8 mph - 0.00 in Snow Light Snow
1:00 AM 19.4 °F 10.4 °F 17.6 °F 93% 30.06 in 3.0 mi NW 6.9 mph - 0.00 in Snow Light Snow
1:10 AM 19.4 °F 12.8 °F 17.6 °F 93% 30.06 in 4.0 mi NW 4.6 mph - 0.00 in Snow Light Snow
1:40 AM 19.4 °F - 17.6 °F 93% 30.06 in 2.5 mi Calm Calm - 0.00 in Snow Light Snow
1:53 AM 19.9 °F - 17.1 °F 89% 30.11 in 2.0 mi Calm Calm - 0.00 in Snow Light Snow
1:59 AM 19.4 °F 14.3 °F 17.6 °F 93% 30.06 in 1.5 mi North 3.5 mph - 0.00 in Snow Light Snow
2:15 AM 19.4 °F 10.4 °F 17.6 °F 93% 30.06 in 1.2 mi NNW 6.9 mph - 0.00 in Snow Light Snow
2:23 AM 19.4 °F 11.5 °F 17.6 °F 93% 30.06 in 1.8 mi North 5.8 mph - 0.00 in Snow Light Snow
2:31 AM 19.4 °F 9.5 °F 15.8 °F 86% 30.07 in 3.0 mi NNW 8.1 mph - 0.00 in Snow Light Snow
2:53 AM 19.9 °F 9.3 °F 12.9 °F 74% 30.13 in 8.0 mi NW 9.2 mph - 0.00 in Snow Light Snow
3:04 AM 19.4 °F 11.5 °F 12.2 °F 74% 30.07 in 9.0 mi NNW 5.8 mph - 0.00 in   Overcast
3:53 AM 19.9 °F 14.9 °F 12.0 °F 71% 30.14 in 8.0 mi NNW 3.5 mph - 0.00 in Snow Light Snow
4:53 AM 19.0 °F 13.9 °F 12.9 °F 77% 30.15 in 4.0 mi East 3.5 mph - 0.00 in Snow Light Snow
5:09 AM 19.4 °F 14.3 °F 12.2 °F 74% 30.09 in 4.0 mi East 3.5 mph - 0.00 in Snow Light Snow
5:53 AM 18.0 °F 12.7 °F 12.9 °F 81% 30.16 in 5.0 mi SE 3.5 mph - 0.00 in Snow Light Snow
6:53 AM 18.0 °F - 14.0 °F 84% 30.18 in 10.0 mi Calm Calm - 0.00 in   Overcast
7:53 AM 19.0 °F 13.9 °F 12.0 °F 74% 30.20 in 10.0 mi North 3.5 mph - N/A   Overcast
8:30 AM 19.4 °F 9.5 °F 15.8 °F 86% 30.14 in 2.5 mi NNW 8.1 mph - 0.00 in Snow Light Snow
8:49 AM 19.4 °F 14.3 °F 14.0 °F 80% 30.14 in 5.0 mi WNW 3.5 mph - 0.00 in Snow Light Snow
8:53 AM 19.0 °F - 14.0 °F 81% 30.23 in 6.0 mi Calm Calm - 0.00 in Snow Light Snow
9:10 AM 19.4 °F 14.3 °F 12.2 °F 74% 30.14 in 10.0 mi Variable 3.5 mph - 0.00 in   Overcast
9:53 AM 19.9 °F 12.1 °F 12.0 °F 71% 30.22 in 10.0 mi East 5.8 mph - 0.00 in   Partly Cloudy
10:29 AM 21.2 °F 14.9 °F 12.2 °F 68% 30.15 in 10.0 mi ENE 4.6 mph - N/A   Mostly Cloudy
11:32 AM 23.0 °F 15.8 °F 15.8 °F 74% 30.15 in 10.0 mi East 5.8 mph - N/A   Scattered Clouds
11:53 AM 24.1 °F - 17.1 °F 75% 30.23 in 10.0 mi Calm Calm - N/A   Clear
12:53 PM 28.0 °F 22.8 °F 19.9 °F 72% 30.19 in 10.0 mi Variable 4.6 mph - N/A   Partly Cloudy
1:26 PM 28.4 °F 22.2 °F 21.2 °F 74% 30.10 in 9.0 mi ENE 5.8 mph - N/A   Partly Cloudy
1:53 PM 28.9 °F 21.9 °F 21.9 °F 75% 30.14 in 10.0 mi Variable 6.9 mph - N/A   Clear
2:00 PM 30.2 °F 21.9 °F 24.8 °F 80% 30.09 in 8.0 mi ESE 9.2 mph - N/A   Partly Cloudy
2:53 PM 33.1 °F 28.7 °F 24.1 °F 70% 30.12 in 10.0 mi ENE 4.6 mph - N/A   Clear
3:53 PM 34.0 °F 28.8 °F 24.1 °F 67% 30.09 in 10.0 mi NE 5.8 mph - N/A   Clear
4:53 PM 37.0 °F 33.3 °F 24.1 °F 59% 30.06 in 10.0 mi Variable 4.6 mph - N/A   Clear
5:53 PM 37.9 °F 35.5 °F 23.0 °F 55% 30.06 in 10.0 mi South 3.5 mph - N/A   Clear
6:53 PM 37.9 °F 35.5 °F 23.0 °F 55% 30.06 in 10.0 mi SE 3.5 mph - N/A   Clear
7:53 PM 37.0 °F 31.6 °F 24.1 °F 59% 30.06 in 10.0 mi ESE 6.9 mph - N/A   Clear
8:53 PM 35.1 °F 29.3 °F 25.0 °F 67% 30.08 in 10.0 mi SE 6.9 mph - N/A   Clear
9:53 PM 33.1 °F 26.9 °F 26.1 °F 75% 30.09 in 10.0 mi SE 6.9 mph - N/A   Clear
10:53 PM 32.0 °F 25.6 °F 25.0 °F 75% 30.09 in 10.0 mi SE 6.9 mph - N/A   Partly Cloudy
11:53 PM 32.0 °F 25.6 °F 25.0 °F 75% 30.07 in 10.0 mi SE 6.9 mph - N/A   Mostly Cloudy